Вернуться в каталог

USA 141

АктивенВоенныеPO
NORAD 25615·PAYLOAD·🇺🇸 United States

Запущен Oct 3, 1998 с Vandenberg Space Force Base

Loading…

Ближайшие Пролёты (ближайшие 24 часа)

TLE

СвежийSource: Space-Track

Эпоха: Sep 14, 2026, 14:09 UTC

1 25615U 98055C   26257.59012136  .00000223  00000-0  55446-4 0  9990
2 25615  84.9859 314.8131 0005644 278.7926  81.2636 14.47288471386969

Отслеживайте USA 141 в реальном времени с AllMySat

Download on the App Store